Airfield :
LOGIN :

Register | Disclaimer

   EN    FR    IT 

 










Legend :    VFR   Marginal VFR   IFR   Intensive IFR   Very Intensive IFR
Visi :
Ceiling :
>= 8 km
>= 3000ft
5 to 8 km
1000 to 3000 ft
1500m to 5 km
500 to 1000 ft
800 to 1500m
200 to 500 ft
< 800m
< 200 ft
Symbols :   Thunderstorms  Fog  Heavy snow  Heavy precipitations  Wind > 20 kt
SIGMETs :     Misc.  Thunderstorms  Icing  Turbulence  Mountain Waves  Volcanic Ashes







- Airport Elevation : 2945 ft
- IATA code : RGS


LEBG - Burgos

CURRENT METAR :
  • 241730Z 06009KT CAVOK 26/07 Q1019

EXPIRED METARs :
  • 241700Z 06009KT CAVOK 27/06 Q1019
  • 241630Z 06008KT 020V100 CAVOK 27/06 Q1019
  • 241600Z 05007KT 010V080 CAVOK 27/06 Q1019
  • 241530Z 04008KT 010V070 CAVOK 27/06 Q1020
  • 241500Z 06007KT 030V090 CAVOK 27/07 Q1020

TAF TAF LEBG
Valid from the 24 at 18:00 until the 25 at 03:00 UTC


241700Z 2418/2503 07007KT CAVOK
PROB30
TEMPO 2418/2420 FEW035TCU
No reported NOTAMs for that airfield.



MET'MAP, your aeronautical weather chart ! - Copyright ORBIFLY December 2007 - Disclaimer

ORBIFLY MET'MAP TEAM :

Programming & Development : Alexandra Zaïnal
Concept & Development : Baudouin d'Aumeries
Co-Development & Prog : Marc-Olivier Méhu
Technical & hardware support : Manuel Goepfert

Contact : metmap@orbifly.com




SOURCES & CREDITS :

   NOAA